Regional Weather Roundup
Issued by NWS

Home | Current Version | Previous Version | Graphics & Text | Print | Product List | Glossary On
Versions: 1 2 3 4 5 6 7 8 9 10 11 12 13 14 15 16 17 18 19 20 21 22 23 24 25 26 27 28 29 30 31 32 33 34 35 36 37 38 39 40 41 42 43 44 45 46 47 48 49 50
807
ASUS43 KMPX 190910
RWRMN
WEATHER ROUNDUP FOR MINNESOTA
NATIONAL WEATHER SERVICE TWIN CITIES/CHANHASSEN MN
300 AM CST FRI JAN 19 2018


NOTE: "FAIR" INDICATES FEW OR NO CLOUDS BELOW 12,000 FEET WITH NO
SIGNIFICANT WEATHER AND/OR OBSTRUCTIONS TO VISIBILITY. N/A MEANS
CURRENT SKY AND/OR WEATHER CONDITIONS ARE NOT AVAILABLE.

MNZ060>063-068>070-191000-
   Twin Cities Metro

CITY           SKY/WX    TMP DP  RH WIND       PRES   REMARKS
TWIN CITIES    CLOUDY    31  27  85 S3        29.70F
ST PAUL        FAIR      25  24  96 S6        29.72F WCI  18
CRYSTAL        FAIR      30  24  78 S6        29.68F WCI  24
BLAINE         FAIR      32  28  86 S7        29.68F WCI  26
LAKEVILLE      FAIR      28  25  86 CALM      29.71S
EDEN PRAIRIE   FAIR      29  25  85 S5        29.69F WCI  24
SOUTH ST PAUL  FAIR      28  26  92 S3        29.71F
LAKE ELMO      FAIR      28  27  93 S5        29.71S WCI  23
$$
MNZ001>005-007-008-013>017-022>024-027-028-191000-
   Northwest Minnesota

CITY           SKY/WX    TMP DP  RH WIND       PRES   REMARKS
BEMIDJI        FAIR      32  24  72 S6        29.51F WCI  26
HALLOCK        FAIR      27  25  93 S14       29.44F WCI  15
ROSEAU         FAIR      28  25  86 S9        29.44F WCI  20
WARROAD        FAIR      30  27  86 SW7       29.44F WCI  23
THIEF RVR FALL FAIR      31  27  85 SW14      29.51R WCI  21
CROOKSTON      FAIR      30  27  86 S14       29.51S WCI  20
FOSSTON        FAIR      28  25  86 S14       29.52F WCI  17
DETROIT LAKES  FAIR      32  27  80 SW9       29.58S WCI  24
MOORHEAD       FAIR      34  25  69 S12       29.57F WCI  25
PARK RAPIDS    FAIR      27  21  78 S8        29.55F WCI  19
MAHNOMEN       FAIR      29  25  82 SW10      29.55S WCI  20
$$
MNZ006-009>011-018-025>026-191000-
   North Central Minnesota

CITY           SKY/WX    TMP DP  RH WIND       PRES   REMARKS
BAUDETTE       FAIR      27  22  81 S6        29.45F WCI  20
FLAG ISLAND    FAIR      23  19  86 S12       29.40F WCI  12
INTL FALLS     FAIR      23  20  88 SE3       29.49F
WASKISH        FAIR      34  25  69 SW8       29.48S WCI  27
BIG FORK       FAIR      30  23  74 S10       29.50F WCI  21
LONGVILLE      FAIR      30  25  80 SW5       29.55F WCI  25
GRAND RAPIDS   FAIR      28  23  81 S7        29.56F WCI  21
CRANE LAKE     FAIR      25  23  93 S6        29.51F WCI  18
ORR            FAIR      27  19  74 SE6       29.48F WCI  20
COOK           CLOUDY    28  21  74 S5        29.52F WCI  23
WALKER         FAIR      32  24  71 SW10      29.52F WCI  24
$$
MNZ012-019>021-037-191000-
   Northeast Minnesota

CITY           SKY/WX    TMP DP  RH WIND       PRES   REMARKS
DULUTH         FAIR      29  23  78 SW9       29.58F WCI  20
ELY            FAIR      27  21  80 S6        29.53F WCI  20
HIBBING        FAIR      23  21  92 S3        29.55F
EVELETH        FAIR      17  14  88 CALM      29.57F
DULUTH HARBOR  FAIR      28  25  86 SW5       29.63F WCI  23
TWO HARBORS    FAIR      25  19  80 CALM      29.58F
SILVER BAY     FAIR      18  18 100 CALM      29.58F
GRAND MARAIS     N/A     28  23  81 W3        29.61F
G MARAIS ARPRT MOCLDY    21  18  86 CALM      29.55F
$$
MNZ029>031-032-039>041-046>048-054>057-064-191000-
   West Central Minnesota

CITY           SKY/WX    TMP DP  RH WIND       PRES   REMARKS
FERGUS FALLS   FAIR      28  25  86 S9        29.59F WCI  20
WHEATON        CLOUDY    32  25  74 S8        29.62F WCI  25
MORRIS         CLOUDY    28  27  93 S7        29.61F WCI  21
ALEXANDRIA     FAIR      31  25  78 SW10      29.61F WCI  22
ELBOW LAKE     FAIR      28  25  89 S9        29.61F WCI  19
WADENA         FAIR      28  23  80 SW5       29.57F WCI  23
GLENWOOD       FAIR      28  27  93 SW7       29.63F WCI  21
APPLETON       CLOUDY    36  27  69 S6        29.63F
BENSON         CLOUDY    30  27  86 S5        29.65F WCI  25
ORTONVILLE     CLOUDY    36  27  69 S7        29.61F
MADISON        CLOUDY    37  28  70 SW5       29.63F
WILLMAR        FAIR      34  28  80 CALM      29.68S
$$
MNZ033>034-036-042>043-049>051-058-059-191000-
   Central Minnesota

CITY           SKY/WX    TMP DP  RH WIND       PRES   REMARKS
ST CLOUD       FAIR      28  25  88 S6        29.65S WCI  22
SAUK CENTRE      N/A     30  26  83 S3        29.63F
PAYNESVILLE    FAIR      32  29  88 S3        29.65F
AITKIN         FAIR      28  25  86 S6        29.57F WCI  22
PINE RIVER     FAIR      25  21  86 SE3       29.61F
BRAINERD       FAIR      31  25  78 SW7       29.60F WCI  24
STAPLES        FAIR      27  23  86 S8        29.58F WCI  18
LONG PRAIRIE   FAIR      30  27  86 S5        29.63S WCI  25
LITTLE FALLS   FAIR      30  21  69 SE6       29.63F WCI  24
LITCHFIELD     FAIR      32  28  86 S3        29.67F
BUFFALO        FAIR      30  26  86 S5        29.68F WCI  25
MAPLE LAKE     FAIR      32  29  88 MISG      29.67F
HUTCHINSON     FAIR      32  28  87 S3        29.70R
$$
MNZ037-044-045-052-053-191000-
   East Central Minnesota

CITY           SKY/WX    TMP DP  RH WIND       PRES   REMARKS
PRINCETON      FAIR      30  27  86 S5        29.67S WCI  25
MORA           FAIR      27  25  93 CALM      29.67S
CAMBRIDGE      FAIR      30  25  80 S5        29.67F WCI  25
RUSH CITY      FAIR      27  25  91 S5        29.67F WCI  22
MOOSE LAKE     FAIR      28  25  86 CALM      29.60F
HINCKLEY       FAIR      28  27  93 S5        29.65F WCI  23
CLOQUET        FAIR      28  21  74 SW7       29.59F WCI  21
MCGREGOR       FAIR      30  27  86 S5        29.59F WCI  25
$$
MNZ071>073-080-081-089-090-097-098-191000-
   Southwest Minnesota

CITY           SKY/WX    TMP DP  RH WIND       PRES   REMARKS
MONTEVIDEO     CLOUDY    36  28  75 SW5       29.65S
GRANITE FALLS  CLOUDY    34  30  84 S6        29.67F WCI  29
CANBY          CLOUDY    41  27  58 SW12      29.64F
MARSHALL       CLOUDY    42  26  53 SW14      29.66S
REDWOOD FALLS  CLOUDY    33  29  85 SW5       29.68R WCI  29
OLIVIA         CLOUDY    32  28  86 S5        29.67F WCI  27
PIPESTONE      CLOUDY    30  27  86 S8        29.68S WCI  23
WINDOM         CLOUDY    32  18  55 SW9       29.71F WCI  24
WORTHINGTON    CLOUDY    30  26  85 S10       29.71F WCI  21
JACKSON        CLOUDY    32  27  80 SW10      29.72F WCI  24
SLAYTON        CLOUDY    31  27  85 SW12      29.70S WCI  21
$$
MNZ065>067-074>077-082>085-091>093-191000-
   South Central Minnesota

CITY           SKY/WX    TMP DP  RH WIND       PRES   REMARKS
MANKATO        FAIR      28  24  85 S8        29.72F WCI  20
NEW ULM        CLOUDY    28  27  93 S6        29.70S WCI  22
ST JAMES       CLOUDY    30  27  86 S6        29.71F WCI  24
FAIRMONT       CLOUDY    29  25  85 SW8       29.73F WCI  21
GLENCOE        FAIR      32  28  86 S6        29.68F WCI  26
FARIBAULT      FAIR      27  23  86 S7        29.72F WCI  19
OWATONNA       FAIR      27  23  86 S10       29.72F WCI  17
WASECA         FAIR      27  21  80 S8        29.74F WCI  18
ALBERT LEA     FAIR      27  21  80 SW3       29.74F
$$
MNZ078>079-086>088-094>096-191000-
   Southeast Minnesota

CITY           SKY/WX    TMP DP  RH WIND       PRES   REMARKS
ROCHESTER      FAIR      25  21  85 SW10      29.74S WCI  15
RED WING       FAIR      27  19  74 S3        29.73F
STANTON        FAIR      29  24  81 S9        29.71S WCI  20
DODGE CENTER   FAIR      25  19  80 SW10      29.73F WCI  15
WINONA         FAIR      28  23  80 CALM      29.77S
AUSTIN         FAIR      25  19  80 SW7       29.76S WCI  17
PRESTON        FAIR      26  20  80 SW12      29.75F WCI  15
$$
ABBREVIATIONS USED IN REMARKS
   TC - TEMPERATURES IN CELSIUS
  WCI - WIND CHILL INDEX
   HX - HEAT INDEX
  VSB - VISIBILITY
$$




USA.gov is the U.S. government's official web portal to all federal, state and local government web resources and services.